20/09/2011,00:00:12,   0.0,  2.1,  246,+10.7,  94.5,    0.2,  +14.3,  +14.9,  +11.1,+1100.00,23
20/09/2011,00:00:30,   0.0,  2.2,  194,+10.7,  94.5,    0.3,  +14.2,  +15.0,  +11.1,+1100.00,1E
20/09/2011,00:00:48,   0.0,  1.6,  185,+10.7,  94.4,    0.1,  +14.3,  +14.8,  +11.2,+1100.00,30
20/09/2011,00:01:14,   0.0,  1.9,  189,+10.7,  94.4,    0.2,  +14.2,  +14.9,  +11.1,+1100.00,31
20/09/2011,00:01:32,   0.0,  2.1,  192,+10.7,  94.4,    0.3,  +14.2,  +14.9,  +11.1,+1100.00,25
20/09/2011,00:01:50,   0.0,  2.0,  192,+10.7,  94.4,    0.0,  +14.2,  +14.8,  +11.1,+1100.00,20
20/09/2011,00:02:08,   0.0,  1.5,  277,+10.7,  94.3,    0.2,  +14.2,  +14.9,  +11.1,+1100.00,2E
20/09/2011,00:02:34,   0.0,  1.9,  214,+10.6,  94.3,    0.2,  +14.2,  +14.8,  +11.1,+1100.00,26
20/09/2011,00:02:52,   0.0,  2.0,  236,+10.7,  94.3,    0.1,  +14.3,  +14.9,  +11.1,+1100.00,24
20/09/2011,00:03:10,   0.0,  2.1,  174,+10.6,  94.3,    0.1,  +14.3,  +14.8,  +11.2,+1100.00,20
20/09/2011,00:03:28,   0.0,  1.4,  222,+10.6,  94.3,    0.1,  +14.3,  +14.8,  +11.2,+1100.00,25
20/09/2011,00:03:54,   0.0,  1.7,  193,+10.6,  94.3,    0.2,  +14.3,  +14.9,  +11.1,+1100.00,2F
20/09/2011,00:04:12,   0.0,  0.9,  231,+10.6,  94.3,    0.3,  +14.3,  +14.9,  +11.1,+1100.00,25
20/09/2011,00:04:30,   0.0,  0.2,  201,+10.6,  94.4,    0.1,  +14.1,  +14.9,  +11.1,+1100.00,18
20/09/2011,00:04:48,   0.0,  0.0,  221,+10.6,  94.4,    0.2,  +14.2,  +14.9,  +11.1,+1100.00,23
20/09/2011,00:05:14,   0.0,  0.5,  214,+10.6,  94.3,    0.3,  +14.3,  +14.8,  +11.1,+1100.00,24
20/09/2011,00:05:32,   0.0,  0.2,  224,+10.6,  94.4,    0.3,  +14.3,  +14.9,  +11.2,+1100.00,25
20/09/2011,00:05:50,   0.0,  0.0,  196,+10.6,  94.3,    0.2,  +14.4,  +14.8,  +11.2,+1100.00,29
20/09/2011,00:06:08,   0.0,  0.0,  205,+10.6,  94.3,    0.2,  +14.3,  +14.9,  +11.1,+1100.00,23
20/09/2011,00:06:34,   0.0,  3.7,  247,+10.6,  94.3,    0.1,  +14.2,  +14.8,  +11.1,+1100.00,2F
20/09/2011,00:06:52,   0.0,  1.7,  234,+10.6,  94.3,    0.2,  +14.2,  +14.9,  +11.1,+1100.00,2B
20/09/2011,00:07:10,   0.0,  1.5,  250,+10.6,  94.2,    0.2,  +14.2,  +14.9,  +11.1,+1100.00,21
20/09/2011,00:07:27,   0.0,  1.8,  196,+10.6,  94.2,    0.2,  +14.2,  +14.9,  +11.1,+1100.00,35
20/09/2011,00:07:53,   0.0,  1.0,  213,+10.6,  94.3,    0.1,  +14.1,  +14.9,  +11.1,+1100.00,21
20/09/2011,00:08:11,   0.0,  2.9,  225,+10.6,  94.3,    0.3,  +14.3,  +14.8,  +11.1,+1100.00,2C
20/09/2011,00:08:29,   0.0,  1.6,  191,+10.6,  94.3,    0.3,  +14.2,  +14.9,  +11.1,+1100.00,33
20/09/2011,00:08:47,   0.0,  1.6,  208,+10.6,  94.3,    0.1,  +14.2,  +14.9,  +11.1,+1100.00,30
20/09/2011,00:09:13,   0.0,  1.6,  238,+10.6,  94.3,    0.2,  +14.3,  +14.9,  +11.1,+1100.00,2F
20/09/2011,00:09:31,   0.0,  2.5,  261,+10.6,  94.4,    0.3,  +14.4,  +14.8,  +11.1,+1100.00,2D
20/09/2011,00:09:49,   0.0,  2.1,  225,+10.6,  94.3,    0.1,  +14.2,  +14.9,  +11.1,+1100.00,2E
20/09/2011,00:10:07,   0.0,  1.5,  254,+10.6,  94.3,    0.3,  +14.1,  +14.9,  +11.0,+1100.00,25
20/09/2011,00:10:33,   0.0,  0.8,  225,+10.6,  94.3,    0.1,  +14.2,  +14.9,  +11.1,+1100.00,24
20/09/2011,00:10:51,   0.0,  1.5,  237,+10.6,  94.3,    0.4,  +14.2,  +14.9,  +11.1,+1100.00,28
20/09/2011,00:11:09,   0.0,  1.7,  224,+10.6,  94.2,    0.2,  +14.1,  +14.9,  +11.1,+1100.00,26
20/09/2011,00:11:27,   0.0,  1.4,  212,+10.6,  94.2,    0.1,  +14.2,  +14.9,  +11.1,+1100.00,20
20/09/2011,00:11:53,   0.0,  1.7,  191,+10.5,  94.2,    0.2,  +14.3,  +14.9,  +11.1,+1100.00,29
20/09/2011,00:12:11,   0.0,  0.9,  242,+10.6,  94.2,    0.3,  +14.3,  +14.9,  +11.1,+1100.00,24
20/09/2011,00:12:29,   0.0,  1.9,  203,+10.5,  94.2,    0.1,  +14.3,  +14.8,  +11.1,+1100.00,27
20/09/2011,00:12:47,   0.0,  3.5,  208,+10.6,  94.2,    0.1,  +14.3,  +14.8,  +11.1,+1100.00,2B
20/09/2011,00:13:13,   0.0,  2.0,  250,+10.6,  94.2,    0.1,  +14.3,  +14.8,  +11.1,+1100.00,1C
20/09/2011,00:13:31,   0.0,  2.0,  212,+10.5,  94.2,    0.3,  +14.1,  +14.9,  +11.0,+1100.00,19
20/09/2011,00:13:49,   0.0,  1.5,  222,+10.5,  94.2,    0.2,  +14.2,  +14.9,  +11.1,+1100.00,28
20/09/2011,00:14:14,   0.0,  2.2,  195,+10.5,  94.2,    0.1,  +14.2,  +14.9,  +11.0,+1100.00,26
20/09/2011,00:14:32,   0.0,  0.9,  221,+10.5,  94.3,    0.1,  +14.2,  +14.9,  +11.0,+1100.00,22
20/09/2011,00:14:50,   0.0,  2.4,  228,+10.6,  94.3,    0.3,  +14.3,  +14.8,  +11.1,+1100.00,2A
20/09/2011,00:15:08,   0.0,  2.4,  224,+10.5,  94.2,    0.1,  +14.3,  +14.8,  +11.1,+1100.00,26
20/09/2011,00:15:34,   0.0,  2.1,  237,+10.5,  94.3,    0.1,  +14.2,  +14.9,  +11.0,+1100.00,26
20/09/2011,00:15:52,   0.0,  0.0,  237,+10.5,  94.3,    0.2,  +14.3,  +14.8,  +11.1,+1100.00,25
20/09/2011,00:16:10,   0.0,  1.9,  212,+10.5,  94.3,    0.3,  +14.2,  +14.9,  +11.0,+1100.00,23
20/09/2011,00:16:28,   0.0,  4.1,  225,+10.5,  94.3,    0.2,  +14.1,  +14.9,  +11.0,+1100.00,29
20/09/2011,00:16:53,   0.0,  2.1,  239,+10.5,  94.3,    0.1,  +14.2,  +14.9,  +11.0,+1100.00,2A
20/09/2011,00:17:11,   0.0,  2.6,  198,+10.5,  94.3,    0.2,  +14.1,  +14.9,  +11.0,+1100.00,2E
20/09/2011,00:17:29,   0.0,  2.5,  230,+10.5,  94.3,    0.3,  +14.3,  +14.9,  +11.0,+1100.00,2C
20/09/2011,00:17:47,   0.0,  3.0,  220,+10.5,  94.3,    0.2,  +14.2,  +14.9,  +11.0,+1100.00,25
20/09/2011,00:18:13,   0.0,  2.6,  219,+10.5,  94.4,    0.1,  +14.2,  +14.9,  +11.0,+1100.00,2C
20/09/2011,00:18:31,   0.0,  1.0,  240,+10.5,  94.4,    0.3,  +14.2,  +14.9,  +11.0,+1100.00,21
20/09/2011,00:18:49,   0.0,  1.0,  196,+10.5,  94.4,    0.2,  +14.2,  +14.9,  +11.0,+1100.00,33
20/09/2011,00:19:14,   0.0,  0.0,  217,+10.5,  94.4,    0.4,  +14.3,  +14.8,  +11.0,+1100.00,27
20/09/2011,00:19:32,   0.0,  0.0,  211,+10.5,  94.5,    0.4,  +14.3,  +14.8,  +11.1,+1100.00,23
20/09/2011,00:19:50,   0.0,  0.0,  221,+10.5,  94.5,    0.3,  +14.3,  +14.8,  +11.1,+1100.00,23
20/09/2011,00:20:08,   0.0,  0.0,  199,+10.5,  94.5,    0.1,  +14.1,  +14.9,  +11.0,+1100.00,28
20/09/2011,00:20:34,   0.0,  1.4,  249,+10.5,  94.3,    0.1,  +14.3,  +14.8,  +11.0,+1100.00,27
20/09/2011,00:20:52,   0.0,  0.1,  227,+10.5,  94.3,    0.3,  +14.2,  +14.9,  +11.0,+1100.00,21
20/09/2011,00:21:10,   0.0,  0.0,  209,+10.5,  94.3,    0.2,  +14.2,  +14.9,  +11.0,+1100.00,1A
20/09/2011,00:21:28,   0.0,  0.8,  233,+10.5,  94.3,    0.2,  +14.2,  +14.9,  +11.0,+1100.00,28
20/09/2011,00:21:53,   0.0,  2.5,  259,+10.5,  94.2,    0.1,  +14.2,  +14.9,  +11.0,+1100.00,2B
20/09/2011,00:22:11,   0.0,  1.3,  249,+10.5,  94.2,    0.1,  +14.2,  +14.9,  +10.9,+1100.00,2A
20/09/2011,00:22:29,   0.0,  2.1,  201,+10.5,  94.2,    0.3,  +14.2,  +14.9,  +10.9,+1100.00,28
20/09/2011,00:22:47,   0.0,  1.3,  194,+10.5,  94.2,    0.1,  +14.1,  +14.9,  +11.0,+1100.00,29
20/09/2011,00:23:13,   0.0,  1.4,  290,+10.5,  94.2,    0.1,  +14.2,  +14.9,  +10.9,+1100.00,2A
20/09/2011,00:23:31,   0.0,  0.0,  266,+10.5,  94.2,    0.2,  +14.2,  +14.9,  +11.0,+1100.00,21
20/09/2011,00:23:49,   0.0,  0.1,  210,+10.5,  94.1,    0.3,  +14.1,  +14.9,  +10.9,+1100.00,27
20/09/2011,00:24:14,   0.0,  1.4,  233,+10.5,  94.1,    0.1,  +14.2,  +14.9,  +11.0,+1100.00,20
20/09/2011,00:24:32,   0.0,  2.6,  238,+10.5,  94.1,    0.1,  +14.2,  +14.9,  +11.0,+1100.00,28
20/09/2011,00:24:50,   0.0,  2.2,  250,+10.5,  94.1,    0.3,  +14.3,  +14.9,  +11.0,+1100.00,21
20/09/2011,00:25:08,   0.0,  1.5,  232,+10.4,  94.1,    0.2,  +14.2,  +14.9,  +11.0,+1100.00,24
20/09/2011,00:25:34,   0.0,  2.1,  239,+10.4,  94.2,    0.2,  +14.2,  +14.9,  +10.9,+1100.00,30
20/09/2011,00:25:52,   0.0,  2.3,  262,+10.5,  94.1,    0.3,  +14.3,  +14.8,  +11.0,+1100.00,27
20/09/2011,00:26:10,   0.0,  1.6,  240,+10.5,  94.2,    0.2,  +14.2,  +14.9,  +10.9,+1100.00,28
20/09/2011,00:26:28,   0.0,  1.4,  206,+10.5,  94.2,    0.3,  +14.1,  +14.9,  +10.9,+1100.00,31
20/09/2011,00:26:53,   0.0,  0.0,  194,+10.4,  94.3,    0.1,  +14.1,  +14.9,  +10.9,+1100.00,2E
20/09/2011,00:27:11,   0.0,  0.0,  210,+10.4,  94.3,    0.2,  +14.3,  +14.9,  +11.0,+1100.00,19
20/09/2011,00:27:29,   0.0,  0.0,  224,+10.5,  94.3,    0.3,  +14.3,  +14.9,  +10.9,+1100.00,31
20/09/2011,00:27:47,   0.0,  0.0,  216,+10.4,  94.3,    0.1,  +14.1,  +14.9,  +10.9,+1100.00,2D
20/09/2011,00:28:13,   0.0,  0.2,  238,+10.4,  94.3,    0.2,  +14.2,  +14.9,  +11.0,+1100.00,27
20/09/2011,00:28:31,   0.0,  2.5,  234,+10.4,  94.2,    0.1,  +14.2,  +14.9,  +10.9,+1100.00,2E
20/09/2011,00:28:49,   0.0,  0.4,  212,+10.4,  94.2,    0.2,  +14.2,  +14.9,  +11.0,+1100.00,29
20/09/2011,00:29:14,   0.0,  1.5,  211,+10.4,  94.2,    0.1,  +14.2,  +14.9,  +10.9,+1100.00,2A
20/09/2011,00:29:32,   0.0,  2.7,  182,+10.4,  94.2,    0.1,  +14.2,  +14.9,  +10.9,+1100.00,34
20/09/2011,00:29:50,   0.0,  2.0,  180,+10.4,  94.2,    0.3,  +14.2,  +14.9,  +10.9,+1100.00,2D
20/09/2011,00:30:08,   0.0,  2.1,  181,+10.4,  94.1,    0.1,  +14.2,  +14.9,  +11.0,+1100.00,1F
20/09/2011,00:30:34,   0.0,  0.5,  214,+10.4,  94.2,    0.1,  +14.2,  +14.9,  +10.9,+1100.00,26
20/09/2011,00:30:52,   0.0,  0.0,  222,+10.4,  94.2,    0.3,  +14.3,  +14.8,  +10.9,+1100.00,22
20/09/2011,00:31:10,   0.0,  0.0,  219,+10.4,  94.2,    0.3,  +14.3,  +14.8,  +11.0,+1100.00,1B
20/09/2011,00:31:28,   0.0,  0.0,  235,+10.4,  94.2,    0.3,  +14.1,  +14.9,  +10.9,+1100.00,29
20/09/2011,00:31:53,   0.0,  0.0,  183,+10.4,  94.2,    0.1,  +14.1,  +14.9,  +10.9,+1100.00,27
20/09/2011,00:32:11,   0.0,  0.0,  217,+10.4,  94.2,    0.3,  +14.1,  +14.9,  +10.9,+1100.00,22
20/09/2011,00:32:29,   0.0,  0.0,  237,+10.4,  94.2,    0.3,  +14.2,  +15.0,  +10.9,+1100.00,26
20/09/2011,00:32:47,   0.0,  0.0,  236,+10.4,  94.1,    0.2,  +14.2,  +14.9,  +10.9,+1100.00,2B
20/09/2011,00:33:13,   0.0,  1.6,  248,+10.4,  94.1,    0.2,  +14.2,  +14.9,  +10.9,+1100.00,2F
20/09/2011,00:33:31,   0.0,  1.7,  204,+10.4,  94.2,    0.2,  +14.1,  +14.9,  +10.9,+1100.00,28
20/09/2011,00:33:49,   0.0,  1.9,  196,+10.4,  94.2,    0.2,  +14.2,  +14.9,  +10.9,+1100.00,3E
20/09/2011,00:34:14,   0.0,  3.6,  198,+10.4,  94.2,    0.1,  +14.2,  +14.9,  +10.9,+1100.00,37
20/09/2011,00:34:32,   0.0,  2.7,  233,+10.4,  94.3,    0.1,  +14.2,  +14.9,  +10.9,+1100.00,2E
20/09/2011,00:34:50,   0.0,  2.3,  214,+10.4,  94.3,    0.3,  +14.3,  +14.9,  +10.9,+1100.00,2C
20/09/2011,00:35:08,   0.0,  1.3,  190,+10.4,  94.3,    0.2,  +14.2,  +14.9,  +10.9,+1100.00,30
20/09/2011,00:35:34,   0.0,  2.1,  188,+10.4,  94.3,    0.0,  +14.2,  +14.8,  +10.9,+1100.00,32
20/09/2011,00:35:52,   0.0,  2.2,  216,+10.4,  94.4,    0.2,  +14.3,  +14.8,  +10.9,+1100.00,2F
20/09/2011,00:36:10,   0.0,  3.1,  211,+10.4,  94.4,    0.3,  +14.3,  +14.9,  +10.9,+1100.00,27
20/09/2011,00:36:28,   0.0,  3.8,  234,+10.4,  94.5,    0.2,  +14.1,  +14.9,  +10.9,+1100.00,3A
20/09/2011,00:36:53,   0.0,  1.9,  213,+10.4,  94.5,    0.1,  +14.3,  +14.8,  +10.9,+1100.00,34
20/09/2011,00:37:11,   0.0,  2.2,  236,+10.4,  94.5,    0.1,  +14.3,  +14.9,  +10.9,+1100.00,2F
20/09/2011,00:37:29,   0.0,  2.6,  232,+10.4,  94.5,    0.4,  +14.3,  +14.9,  +10.8,+1100.00,3A
20/09/2011,00:37:47,   0.0,  2.3,  241,+10.4,  94.5,    0.2,  +14.1,  +14.9,  +10.8,+1100.00,33
20/09/2011,00:38:13,   0.0,  0.4,  222,+10.4,  94.4,    0.2,  +14.3,  +14.8,  +10.9,+1100.00,2C
20/09/2011,00:38:31,   0.0,  0.0,  180,+10.4,  94.4,    0.2,  +14.3,  +14.8,  +10.9,+1100.00,2B
20/09/2011,00:38:49,   0.0,  0.0,  245,+10.4,  94.4,    0.2,  +14.2,  +14.9,  +10.9,+1100.00,36
20/09/2011,00:39:14,   0.0,  1.9,  229,+10.4,  94.4,    0.2,  +14.2,  +14.8,  +10.8,+1100.00,39
20/09/2011,00:39:32,   0.0,  3.3,  238,+10.4,  94.4,    0.2,  +14.2,  +14.9,  +10.8,+1100.00,36
20/09/2011,00:39:50,   0.0,  2.9,  231,+10.4,  94.5,    0.3,  +14.3,  +14.9,  +10.9,+1100.00,38
20/09/2011,00:40:08,   0.0,  1.3,  239,+10.4,  94.4,    0.2,  +14.1,  +14.9,  +10.8,+1100.00,2F
20/09/2011,00:40:34,   0.0,  1.4,  203,+10.4,  94.4,    0.1,  +14.2,  +14.9,  +10.9,+1100.00,27
20/09/2011,00:40:52,   0.0,  0.8,  226,+10.4,  94.4,    0.3,  +14.3,  +14.8,  +10.9,+1100.00,31
20/09/2011,00:41:10,   0.0,  0.0,  217,+10.4,  94.4,    0.2,  +14.3,  +14.8,  +10.9,+1100.00,23
20/09/2011,00:41:28,   0.0,  0.0,  225,+10.4,  94.4,    0.2,  +14.2,  +14.9,  +10.8,+1100.00,2A
20/09/2011,00:41:53,   0.0,  0.0,  265,+10.4,  94.4,    0.1,  +14.2,  +14.9,  +10.8,+1100.00,2B
20/09/2011,00:42:11,   0.0,  0.0,  265,+10.5,  94.4,    0.1,  +14.3,  +14.8,  +10.9,+1100.00,28
20/09/2011,00:42:29,   0.0,  0.0,  278,+10.4,  94.4,    0.3,  +14.3,  +14.9,  +10.8,+1100.00,36
20/09/2011,00:42:47,   0.0,  2.3,  263,+10.4,  94.2,    0.2,  +14.1,  +14.9,  +10.9,+1100.00,31
20/09/2011,00:43:13,   0.0,  1.5,  228,+10.4,  94.2,    0.4,  +14.2,  +14.9,  +10.9,+1100.00,30
20/09/2011,00:43:31,   0.0,  1.3,  223,+10.4,  94.2,    0.3,  +14.1,  +14.9,  +10.9,+1100.00,27
20/09/2011,00:43:49,   0.0,  1.9,  225,+10.4,  94.1,    0.3,  +14.2,  +14.9,  +10.9,+1100.00,38
20/09/2011,00:44:14,   0.0,  3.5,  217,+10.4,  94.1,    0.3,  +14.3,  +14.9,  +10.9,+1100.00,31
20/09/2011,00:44:32,   0.0,  2.5,  234,+10.4,  94.1,    0.3,  +14.3,  +14.9,  +10.9,+1100.00,2F
20/09/2011,00:44:50,   0.0,  1.7,  233,+10.4,  94.2,    0.5,  +14.3,  +14.9,  +10.9,+1100.00,32
20/09/2011,00:45:08,   0.0,  1.9,  221,+10.4,  94.2,    0.3,  +14.2,  +14.9,  +10.8,+1100.00,31
20/09/2011,00:45:34,   0.0,  2.0,  239,+10.4,  94.3,    0.2,  +14.2,  +14.9,  +10.9,+1100.00,32
20/09/2011,00:45:52,   0.0,  3.2,  230,+10.4,  94.3,    0.1,  +14.1,  +14.9,  +10.8,+1100.00,29
20/09/2011,00:46:10,   0.0,  1.1,  154,+10.4,  94.4,    0.3,  +14.2,  +14.9,  +10.9,+1100.00,2B
20/09/2011,00:46:27,   0.0,  2.2,  171,+10.4,  94.4,    0.2,  +14.3,  +14.8,  +10.9,+1100.00,33
20/09/2011,00:46:53,   0.0,  1.9,  174,+10.4,  94.3,    0.0,  +14.2,  +14.9,  +10.8,+1100.00,37
20/09/2011,00:47:11,   0.0,  2.2,  238,+10.4,  94.3,    0.2,  +14.2,  +14.9,  +10.8,+1100.00,2F
20/09/2011,00:47:29,   0.0,  3.0,  240,+10.4,  94.3,    0.3,  +14.2,  +14.9,  +10.8,+1100.00,31
20/09/2011,00:47:47,   0.0,  1.8,  237,+10.4,  94.3,    0.2,  +14.2,  +14.9,  +10.8,+1100.00,3C
20/09/2011,00:48:13,   0.0,  2.2,  211,+10.4,  94.3,    0.3,  +14.2,  +14.9,  +10.8,+1100.00,2A
20/09/2011,00:48:31,   0.0,  0.5,  263,+10.4,  94.4,    0.3,  +14.1,  +14.9,  +10.8,+1100.00,32
20/09/2011,00:48:49,   0.0,  1.9,  214,+10.4,  94.4,    0.2,  +14.3,  +14.8,  +10.8,+1100.00,3C
20/09/2011,00:49:14,   0.0,  4.1,  232,+10.4,  94.4,    0.4,  +14.3,  +14.8,  +10.9,+1100.00,33
20/09/2011,00:49:32,   0.0,  3.3,  223,+10.4,  94.4,    0.1,  +14.2,  +14.9,  +10.8,+1100.00,30
20/09/2011,00:49:50,   0.0,  2.8,  207,+10.4,  94.5,    0.4,  +14.3,  +14.9,  +10.8,+1100.00,3B
20/09/2011,00:50:08,   0.0,  2.8,  203,+10.4,  94.4,    0.2,  +14.2,  +14.9,  +10.8,+1100.00,2E
20/09/2011,00:50:34,   0.0,  3.7,  231,+10.4,  94.4,    0.1,  +14.2,  +14.9,  +10.8,+1100.00,2D
20/09/2011,00:50:52,   0.0,  2.7,  238,+10.4,  94.4,    0.3,  +14.3,  +14.9,  +10.8,+1100.00,36
20/09/2011,00:51:10,   0.0,  2.4,  185,+10.4,  94.4,    0.5,  +14.3,  +14.9,  +10.8,+1100.00,31
20/09/2011,00:51:28,   0.0,  1.4,  245,+10.4,  94.3,    0.2,  +14.1,  +14.9,  +10.8,+1100.00,30
20/09/2011,00:51:54,   0.0,  4.2,  229,+10.4,  94.2,    0.1,  +14.3,  +14.8,  +10.8,+1100.00,31
20/09/2011,00:52:12,   0.0,  3.6,  233,+10.4,  94.2,    0.1,  +14.3,  +14.9,  +10.8,+1100.00,2B
20/09/2011,00:52:30,   0.0,  4.2,  249,+10.4,  94.2,    0.5,  +14.2,  +15.0,  +10.7,+1100.00,29
20/09/2011,00:52:48,   0.0,  2.4,  268,+10.4,  94.3,    0.1,  +14.2,  +14.9,  +10.8,+1100.00,39
20/09/2011,00:53:14,   0.0,  3.7,  236,+10.4,  94.3,    0.2,  +14.2,  +14.9,  +10.8,+1100.00,33
20/09/2011,00:53:32,   0.0,  3.5,  229,+10.5,  94.3,    0.3,  +14.3,  +14.9,  +10.8,+1100.00,36
20/09/2011,00:53:50,   0.0,  1.8,  218,+10.4,  94.3,    0.1,  +14.2,  +14.9,  +10.8,+1100.00,31
20/09/2011,00:54:08,   0.0,  1.8,  208,+10.4,  94.3,    0.1,  +14.2,  +14.9,  +10.8,+1100.00,34
20/09/2011,00:54:34,   0.0,  3.6,  228,+10.4,  94.3,    0.2,  +14.2,  +14.9,  +10.8,+1100.00,36
20/09/2011,00:54:52,   0.0,  2.2,  220,+10.5,  94.3,    0.3,  +14.3,  +14.8,  +10.8,+1100.00,2B
20/09/2011,00:55:10,   0.0,  3.4,  217,+10.5,  94.3,    0.1,  +14.2,  +14.9,  +10.8,+1100.00,2D
20/09/2011,00:55:28,   0.0,  1.8,  224,+10.4,  94.3,    0.2,  +14.1,  +14.9,  +10.8,+1100.00,35
20/09/2011,00:55:54,   0.0,  2.1,  228,+10.4,  94.3,    0.2,  +14.2,  +14.8,  +10.8,+1100.00,32
20/09/2011,00:56:12,   0.0,  2.5,  238,+10.5,  94.3,    0.3,  +14.3,  +14.9,  +10.8,+1100.00,36
20/09/2011,00:56:30,   0.0,  1.9,  259,+10.5,  94.2,    0.1,  +14.1,  +14.9,  +10.8,+1100.00,37
20/09/2011,00:56:48,   0.0,  2.2,  211,+10.4,  94.2,    0.1,  +14.2,  +14.9,  +10.8,+1100.00,2E
20/09/2011,00:57:14,   0.0,  5.0,  249,+10.4,  94.2,    0.2,  +14.2,  +14.9,  +10.8,+1100.00,35
20/09/2011,00:57:32,   0.0,  3.2,  249,+10.5,  94.2,    0.3,  +14.3,  +14.9,  +10.8,+1100.00,38
20/09/2011,00:57:50,   0.0,  2.4,  215,+10.4,  94.1,    0.1,  +14.2,  +14.9,  +10.8,+1100.00,2D
20/09/2011,00:58:08,   0.0,  1.8,  250,+10.5,  94.1,    0.1,  +14.1,  +14.9,  +10.8,+1100.00,33
20/09/2011,00:58:34,   0.0,  3.4,  190,+10.4,  94.1,    0.1,  +14.2,  +14.9,  +10.8,+1100.00,33
20/09/2011,00:58:52,   0.0,  1.4,  248,+10.5,  94.1,    0.3,  +14.3,  +14.9,  +10.8,+1100.00,39
20/09/2011,00:59:10,   0.0,  2.1,  210,+10.4,  94.1,    0.3,  +14.1,  +14.9,  +10.8,+1100.00,24
20/09/2011,00:59:28,   0.0,  2.0,  243,+10.4,  94.0,    0.1,  +14.3,  +14.9,  +10.8,+1100.00,31
20/09/2011,00:59:54,   0.0,  2.1,  231,+10.4,  94.0,    0.2,  +14.2,  +14.9,  +10.8,+1100.00,2E
20/09/2011,01:00:12,   0.0,  1.7,  222,+10.4,  94.0,    0.4,  +14.3,  +14.9,  +10.8,+1100.00,23
20/09/2011,01:00:30,   0.0,  2.8,  239,+10.4,  93.9,    0.3,  +14.2,  +14.9,  +10.8,+1100.00,33
20/09/2011,01:00:48,   0.0,  2.4,  233,+10.4,  93.9,    0.2,  +14.2,  +14.9,  +10.8,+1100.00,31
20/09/2011,01:01:14,   0.0,  2.2,  238,+10.4,  93.9,    0.3,  +14.2,  +14.9,  +10.8,+1100.00,2F
20/09/2011,01:01:32,   0.0,  1.5,  233,+10.4,  93.9,    0.4,  +14.2,  +14.9,  +10.8,+1100.00,2D
20/09/2011,01:01:50,   0.0,  2.8,  213,+10.4,  93.9,    0.3,  +14.2,  +14.9,  +10.8,+1100.00,2E
20/09/2011,01:02:07,   0.0,  2.3,  229,+10.4,  93.9,    0.2,  +14.1,  +14.9,  +10.8,+1100.00,31
20/09/2011,01:02:33,   0.0,  1.9,  229,+10.4,  93.9,    0.1,  +14.2,  +14.9,  +10.8,+1100.00,35
20/09/2011,01:02:51,   0.0,  2.8,  211,+10.4,  93.9,    0.1,  +14.3,  +14.8,  +10.8,+1100.00,2C
20/09/2011,01:03:09,   0.0,  3.7,  198,+10.4,  94.0,    0.3,  +14.3,  +14.9,  +10.8,+1100.00,39
20/09/2011,01:03:27,   0.0,  4.0,  231,+10.4,  94.0,    0.1,  +14.2,  +14.9,  +10.8,+1100.00,24
20/09/2011,01:03:53,   0.0,  4.2,  251,+10.4,  94.0,    0.2,  +14.2,  +14.9,  +10.7,+1100.00,27
20/09/2011,01:04:11,   0.0,  2.2,  205,+10.4,  94.0,    0.3,  +14.2,  +15.0,  +10.8,+1100.00,19
20/09/2011,01:04:29,   0.0,  2.3,  239,+10.4,  94.0,    0.0,  +14.2,  +14.9,  +10.8,+1100.00,2F
20/09/2011,01:04:47,   0.0,  3.6,  238,+10.4,  94.0,    0.1,  +14.2,  +14.9,  +10.8,+1100.00,33
20/09/2011,01:05:13,   0.0,  2.7,  218,+10.4,  94.0,    0.2,  +14.2,  +14.9,  +10.7,+1100.00,2B
20/09/2011,01:05:31,   0.0,  3.9,  227,+10.4,  94.1,    0.3,  +14.3,  +14.9,  +10.7,+1100.00,31
20/09/2011,01:05:49,   0.0,  3.2,  213,+10.4,  94.1,    0.2,  +14.2,  +14.9,  +10.8,+1100.00,2D
20/09/2011,01:06:07,   0.0,  2.7,  194,+10.4,  94.1,    0.1,  +14.2,  +14.9,  +10.8,+1100.00,33
20/09/2011,01:06:33,   0.0,  3.2,  248,+10.4,  94.0,    0.2,  +14.2,  +14.9,  +10.7,+1100.00,2D
20/09/2011,01:06:51,   0.0,  4.2,  220,+10.4,  94.0,    0.2,  +14.3,  +14.8,  +10.8,+1100.00,25
20/09/2011,01:07:09,   0.0,  3.0,  229,+10.5,  94.0,    0.3,  +14.2,  +14.9,  +10.7,+1100.00,30
20/09/2011,01:07:34,   0.0,  3.3,  257,+10.4,  93.9,    0.1,  +14.2,  +14.9,  +10.7,+1100.00,37
20/09/2011,01:07:52,   0.0,  4.0,  209,+10.4,  94.0,    0.1,  +14.2,  +14.9,  +10.8,+1100.00,2B
20/09/2011,01:08:10,   0.0,  2.7,  207,+10.4,  94.0,    0.3,  +14.2,  +14.9,  +10.7,+1100.00,2A
20/09/2011,01:08:28,   0.0,  2.5,  236,+10.4,  94.0,    0.3,  +14.2,  +14.9,  +10.8,+1100.00,34
20/09/2011,01:08:54,   0.0,  2.9,  222,+10.4,  94.0,    0.0,  +14.2,  +14.9,  +10.8,+1100.00,2F
20/09/2011,01:09:12,   0.0,  2.7,  199,+10.4,  94.0,    0.3,  +14.2,  +14.9,  +10.7,+1100.00,37
20/09/2011,01:09:30,   0.0,  1.4,  249,+10.4,  93.9,    0.2,  +14.2,  +14.9,  +10.8,+1100.00,37
20/09/2011,01:09:47,   0.0,  2.1,  233,+10.4,  93.9,    0.1,  +14.2,  +14.9,  +10.8,+1100.00,35
20/09/2011,01:10:13,   0.0,  1.9,  217,+10.4,  93.9,    0.3,  +14.1,  +14.9,  +10.7,+1100.00,2F
20/09/2011,01:10:31,   0.0,  1.5,  239,+10.4,  93.8,    0.4,  +14.2,  +14.8,  +10.8,+1100.00,30
20/09/2011,01:10:49,   0.0,  3.3,  244,+10.4,  93.8,    0.3,  +14.2,  +15.0,  +10.7,+1100.00,2C
20/09/2011,01:11:07,   0.0,  3.6,  228,+10.4,  93.8,    0.2,  +14.3,  +14.8,  +10.8,+1100.00,34
20/09/2011,01:11:33,   0.0,  3.9,  225,+10.4,  93.9,    0.2,  +14.2,  +14.9,  +10.7,+1100.00,33
20/09/2011,01:11:51,   0.0,  3.1,  215,+10.4,  93.9,    0.3,  +14.2,  +15.0,  +10.7,+1100.00,23
20/09/2011,01:12:09,   0.0,  5.1,  259,+10.4,  93.9,    0.2,  +14.2,  +14.9,  +10.8,+1100.00,39
20/09/2011,01:12:27,   0.0,  5.0,  234,+10.4,  93.9,    0.2,  +14.2,  +14.9,  +10.8,+1100.00,31
20/09/2011,01:12:53,   0.0,  2.5,  206,+10.4,  93.9,    0.1,  +14.4,  +14.8,  +10.8,+1100.00,31
20/09/2011,01:13:11,   0.0,  4.0,  185,+10.4,  93.8,    0.3,  +14.2,  +14.9,  +10.7,+1100.00,2E
20/09/2011,01:13:29,   0.0,  4.0,  222,+10.4,  93.9,    0.3,  +14.2,  +14.8,  +10.7,+1100.00,2F
20/09/2011,01:13:54,   0.0,  3.5,  219,+10.4,  93.8,    0.1,  +14.1,  +14.9,  +10.7,+1100.00,34
20/09/2011,01:14:12,   0.0,  4.4,  183,+10.4,  93.9,    0.2,  +14.1,  +15.0,  +10.7,+1100.00,29
20/09/2011,01:14:30,   0.0,  3.6,  204,+10.4,  93.9,    0.3,  +14.2,  +14.9,  +10.7,+1100.00,2E
20/09/2011,01:14:48,   0.0,  3.5,  210,+10.4,  94.0,    0.1,  +14.2,  +14.9,  +10.8,+1100.00,2A
20/09/2011,01:15:14,   0.0,  2.4,  236,+10.4,  93.9,    0.1,  +14.2,  +14.9,  +10.7,+1100.00,31
20/09/2011,01:15:32,   0.0,  3.1,  246,+10.4,  93.9,    0.3,  +14.2,  +14.9,  +10.7,+1100.00,32
20/09/2011,01:15:50,   0.0,  2.5,  213,+10.4,  93.9,    0.2,  +14.2,  +14.9,  +10.8,+1100.00,2F
20/09/2011,01:16:08,   0.0,  3.1,  210,+10.4,  93.9,    0.2,  +14.3,  +14.8,  +10.8,+1100.00,2D
20/09/2011,01:16:33,   0.0,  3.6,  209,+10.4,  93.9,    0.1,  +14.2,  +14.9,  +10.8,+1100.00,37
20/09/2011,01:16:51,   0.0,  3.7,  255,+10.4,  93.9,    0.2,  +14.2,  +14.9,  +10.8,+1100.00,3A
20/09/2011,01:17:09,   0.0,  2.6,  215,+10.4,  94.0,    0.3,  +14.3,  +14.9,  +10.8,+1100.00,32
20/09/2011,01:17:27,   0.0,  3.0,  235,+10.4,  94.0,    0.5,  +14.2,  +14.8,  +10.8,+1100.00,2F
20/09/2011,01:17:53,   0.0,  2.7,  225,+10.4,  93.9,    0.2,  +14.3,  +14.8,  +10.8,+1100.00,39
20/09/2011,01:18:11,   0.0,  3.0,  224,+10.4,  93.9,    0.3,  +14.2,  +14.8,  +10.8,+1100.00,2D
20/09/2011,01:18:29,   0.0,  2.8,  201,+10.4,  93.9,    0.3,  +14.2,  +14.9,  +10.8,+1100.00,39
20/09/2011,01:18:54,   0.0,  3.5,  240,+10.4,  93.8,    0.0,  +14.3,  +14.8,  +10.8,+1100.00,34
20/09/2011,01:19:12,   0.0,  2.0,  232,+10.5,  93.8,    0.1,  +14.1,  +14.9,  +10.8,+1100.00,2B
20/09/2011,01:19:30,   0.0,  4.8,  190,+10.4,  93.9,    0.3,  +14.4,  +14.8,  +10.8,+1100.00,3C
20/09/2011,01:19:48,   0.0,  3.9,  214,+10.4,  93.9,    0.1,  +14.3,  +14.8,  +10.8,+1100.00,3F
20/09/2011,01:20:14,   0.0,  3.1,  214,+10.4,  93.9,    0.1,  +14.2,  +14.9,  +10.7,+1100.00,27
20/09/2011,01:20:32,   0.0,  2.7,  222,+10.4,  94.0,    0.2,  +14.2,  +14.9,  +10.7,+1100.00,24
20/09/2011,01:20:50,   0.0,  2.7,  192,+10.4,  93.9,    0.3,  +14.3,  +14.8,  +10.8,+1100.00,34
20/09/2011,01:21:08,   0.0,  2.1,  217,+10.4,  93.9,    0.2,  +14.2,  +14.9,  +10.8,+1100.00,2F
20/09/2011,01:21:33,   0.0,  4.2,  230,+10.4,  93.9,    0.2,  +14.3,  +14.8,  +10.8,+1100.00,2B
20/09/2011,01:21:51,   0.0,  4.1,  239,+10.5,  93.9,    0.2,  +14.2,  +14.9,  +10.8,+1100.00,34
20/09/2011,01:22:09,   0.0,  4.3,  243,+10.5,  93.9,    0.3,  +14.3,  +14.9,  +10.7,+1100.00,36